Zurück zum Katalog

STARLINK-5729

AktivKommunikationVLEO
NORAD 55596·PAYLOAD·🇺🇸 United States

Gestartet Feb 12, 2023 von Cape Canaveral Space Force Station

Loading…

Nächste Überflüge (nächste 24 Stunden)

TLE

AktuellSource: CelesTrak SupGP

Epoche: Sep 14, 2026, 21:51 UTC

1 55596C 23020AD  26257.91090278 -.00000391  00000+0 -14179-4 0  2572
2 55596  43.0040  16.4608 0001737 281.1268  60.8142 15.27579114    18

Verfolge STARLINK-5729 in Echtzeit mit AllMySat

Download on the App Store